JIA5288 KDCA-KCLT

Flight info

Callsign JIA5288
Flight time 0h 57m
Altitude 32000
Route SCRAM6 GLANC DCT AIROW CHSLY6
Aircraft CRJ9/M-VGD/A

Departure

Time 2026-05-07 00:46
Airport Ronald Reagan Washington National Airport (KDCA)

Arrival

Time 2026-05-07 01:43
Airport Charlotte Douglas International Airport (KCLT)
Time Latitude Longitude Altitude Speed Heading
2026-05-07 00:28 38.85861 -77.04430 27 ft 0 kts 167°
2026-05-07 00:37 38.85875 -77.04438 28 ft 2 kts 131°
2026-05-07 00:37 38.85879 -77.04458 27 ft 2 kts 76°
2026-05-07 00:37 38.85879 -77.04460 27 ft 0 kts 76°
2026-05-07 00:39 38.85885 -77.04445 25 ft 5 kts 54°
2026-05-07 00:39 38.85890 -77.04438 27 ft 0 kts 38°
2026-05-07 00:39 38.85893 -77.04435 28 ft 2 kts 38°
2026-05-07 00:39 38.85925 -77.04403 27 ft 9 kts 39°
2026-05-07 00:40 38.85948 -77.04330 26 ft 9 kts 119°
2026-05-07 00:40 38.85919 -77.04255 26 ft 11 kts 88°
2026-05-07 00:40 38.85925 -77.04134 25 ft 16 kts 85°
2026-05-07 00:40 38.85939 -77.04024 24 ft 9 kts 54°
2026-05-07 00:41 38.86001 -77.03985 24 ft 0 kts 17°
2026-05-07 00:44 38.86001 -77.03984 24 ft 2 kts 17°
2026-05-07 00:45 38.86048 -77.03966 23 ft 10 kts 21°
2026-05-07 00:45 38.86086 -77.03898 21 ft 10 kts 109°
2026-05-07 00:45 38.86031 -77.03863 22 ft 9 kts 173°
2026-05-07 00:45 38.85876 -77.03849 26 ft 54 kts 176°
2026-05-07 00:46 38.85503 -77.03812 24 ft 107 kts 175°
2026-05-07 00:46 38.84565 -77.03722 101 ft 160 kts 176°
2026-05-07 00:46 38.83376 -77.03625 694 ft 181 kts 178°
2026-05-07 00:46 38.82021 -77.03536 1244 ft 209 kts 182°
2026-05-07 00:47 38.80503 -77.03514 1757 ft 223 kts 184°
2026-05-07 00:47 38.78930 -77.03509 2251 ft 228 kts 184°
2026-05-07 00:47 38.77330 -77.03507 2735 ft 231 kts 189°
2026-05-07 00:47 38.75914 -77.04295 3464 ft 225 kts 230°
2026-05-07 00:48 38.75140 -77.05981 4232 ft 217 kts 248°
2026-05-07 00:48 38.74667 -77.07775 4951 ft 209 kts 260°
2026-05-07 00:48 38.74502 -77.09594 5702 ft 202 kts 266°
2026-05-07 00:48 38.74439 -77.11373 6438 ft 203 kts 268°
2026-05-07 00:49 38.74318 -77.13210 7152 ft 212 kts 255°
2026-05-07 00:49 38.73789 -77.15017 7914 ft 221 kts 247°
2026-05-07 00:49 38.73109 -77.16787 8690 ft 229 kts 244°
2026-05-07 00:49 38.72370 -77.18634 9490 ft 236 kts 244°
2026-05-07 00:50 38.71623 -77.20545 10239 ft 243 kts 245°
2026-05-07 00:50 38.70844 -77.22508 10983 ft 250 kts 242°
2026-05-07 00:50 38.69898 -77.24412 11741 ft 257 kts 238°
2026-05-07 00:50 38.68839 -77.26287 12509 ft 262 kts 236°
2026-05-07 00:51 38.67742 -77.28176 13290 ft 267 kts 237°
2026-05-07 00:51 38.66639 -77.30107 14060 ft 271 kts 237°
2026-05-07 00:51 38.65524 -77.32078 14747 ft 275 kts 238°
2026-05-07 00:51 38.64394 -77.34082 15479 ft 279 kts 239°
2026-05-07 00:52 38.63259 -77.36103 16221 ft 281 kts 239°
2026-05-07 00:52 38.62116 -77.38138 16983 ft 282 kts 239°
2026-05-07 00:52 38.60968 -77.40177 17754 ft 283 kts 240°
2026-05-07 00:52 38.59816 -77.42213 18493 ft 282 kts 240°
2026-05-07 00:53 38.58667 -77.44247 19179 ft 282 kts 240°
2026-05-07 00:53 38.57520 -77.46273 19887 ft 280 kts 241°
2026-05-07 00:53 38.56404 -77.48249 20408 ft 284 kts 241°
2026-05-07 00:53 38.55223 -77.50350 20669 ft 291 kts 241°
2026-05-07 00:54 38.54019 -77.52489 20781 ft 302 kts 241°
2026-05-07 00:54 38.52769 -77.54708 20860 ft 314 kts 241°
2026-05-07 00:54 38.51465 -77.57023 20886 ft 327 kts 241°
2026-05-07 00:54 38.50113 -77.59419 20914 ft 339 kts 240°
2026-05-07 00:55 38.48734 -77.61868 20919 ft 350 kts 240°
2026-05-07 00:55 38.47291 -77.64424 20918 ft 360 kts 240°
2026-05-07 00:55 38.45798 -77.67056 20895 ft 370 kts 239°
2026-05-07 00:55 38.44168 -77.69665 20899 ft 382 kts 235°
2026-05-07 00:56 38.42390 -77.72211 21126 ft 386 kts 234°
2026-05-07 00:56 38.40585 -77.74748 21622 ft 386 kts 234°
2026-05-07 00:56 38.38783 -77.77295 22140 ft 387 kts 235°
2026-05-07 00:56 38.37013 -77.79872 22674 ft 386 kts 236°
2026-05-07 00:57 38.35289 -77.82493 23194 ft 385 kts 237°
2026-05-07 00:57 38.33589 -77.85132 23688 ft 385 kts 237°
2026-05-07 00:57 38.31883 -77.87755 24136 ft 384 kts 237°
2026-05-07 00:57 38.30175 -77.90370 24593 ft 384 kts 236°
2026-05-07 00:58 38.28474 -77.92981 25050 ft 382 kts 237°
2026-05-07 00:58 38.26776 -77.95584 25481 ft 381 kts 236°
2026-05-07 00:58 38.25090 -77.98184 25973 ft 379 kts 236°
2026-05-07 00:58 38.23411 -78.00754 26454 ft 377 kts 236°
2026-05-07 00:59 38.20093 -78.05812 27433 ft 372 kts 236°
2026-05-07 00:59 38.18446 -78.08318 27940 ft 369 kts 236°
2026-05-07 00:59 38.16806 -78.10818 28451 ft 365 kts 236°
2026-05-07 01:00 38.15184 -78.13287 28970 ft 362 kts 236°
2026-05-07 01:00 38.13586 -78.15721 29498 ft 358 kts 236°
2026-05-07 01:00 38.11978 -78.18154 30036 ft 354 kts 235°
2026-05-07 01:00 38.10418 -78.20505 30490 ft 349 kts 236°
2026-05-07 01:01 38.08863 -78.22845 30967 ft 344 kts 236°
2026-05-07 01:01 38.07327 -78.25145 31415 ft 339 kts 237°
2026-05-07 01:01 38.05839 -78.27471 31638 ft 339 kts 239°
2026-05-07 01:01 38.04364 -78.29829 31767 ft 343 kts 238°
2026-05-07 01:02 38.02865 -78.32223 31841 ft 349 kts 239°
2026-05-07 01:02 37.99783 -78.37123 31894 ft 362 kts 238°
2026-05-07 01:03 37.96581 -78.42118 31884 ft 374 kts 238°
2026-05-07 01:03 37.93244 -78.47307 31880 ft 385 kts 238°
2026-05-07 01:04 37.89825 -78.52615 31883 ft 390 kts 237°
2026-05-07 01:04 37.86389 -78.57935 31875 ft 390 kts 237°
2026-05-07 01:05 37.82946 -78.63260 31867 ft 391 kts 237°
2026-05-07 01:05 37.79499 -78.68573 31899 ft 391 kts 237°
2026-05-07 01:06 37.76050 -78.73886 31879 ft 390 kts 237°
2026-05-07 01:06 37.72339 -78.78919 31882 ft 397 kts 229°
2026-05-07 01:07 37.68080 -78.83401 31875 ft 398 kts 228°
2026-05-07 01:07 37.63721 -78.87744 31858 ft 401 kts 226°
2026-05-07 01:08 37.59228 -78.91925 31885 ft 402 kts 225°
2026-05-07 01:08 37.54804 -78.96053 31913 ft 402 kts 225°
2026-05-07 01:09 37.50294 -79.00251 31926 ft 403 kts 225°
2026-05-07 01:09 37.45774 -79.04461 31932 ft 404 kts 225°
2026-05-07 01:10 37.41200 -79.08530 31933 ft 407 kts 224°
2026-05-07 01:10 37.36531 -79.12559 31939 ft 406 kts 224°
2026-05-07 01:11 37.31880 -79.16589 31941 ft 407 kts 224°
2026-05-07 01:11 37.27210 -79.20613 31943 ft 407 kts 224°
2026-05-07 01:12 37.22534 -79.24644 31867 ft 407 kts 224°
2026-05-07 01:12 37.17879 -79.28651 31904 ft 408 kts 223°
2026-05-07 01:13 37.13189 -79.32685 31912 ft 410 kts 223°
2026-05-07 01:13 37.08494 -79.36735 31915 ft 408 kts 226°
2026-05-07 01:13 37.06522 -79.39182 31922 ft 394 kts 238°
2026-05-07 01:14 37.04650 -79.41728 31798 ft 407 kts 227°
2026-05-07 01:14 37.02215 -79.43654 31573 ft 421 kts 216°
2026-05-07 01:14 36.99579 -79.45287 31267 ft 421 kts 216°
2026-05-07 01:14 36.97067 -79.47044 30985 ft 417 kts 220°
2026-05-07 01:15 36.94656 -79.49055 30719 ft 415 kts 223°
2026-05-07 01:15 36.92310 -79.51173 30443 ft 416 kts 223°
2026-05-07 01:15 36.89966 -79.53302 30170 ft 418 kts 222°
2026-05-07 01:15 36.87601 -79.55426 29876 ft 420 kts 221°
2026-05-07 01:16 36.85196 -79.57515 29551 ft 422 kts 221°
2026-05-07 01:16 36.82782 -79.59602 29230 ft 424 kts 221°
2026-05-07 01:16 36.80355 -79.61697 28921 ft 426 kts 220°
2026-05-07 01:16 36.77913 -79.63752 28593 ft 421 kts 221°
2026-05-07 01:17 36.75496 -79.65769 28334 ft 415 kts 221°
2026-05-07 01:17 36.73104 -79.67766 28058 ft 411 kts 221°
2026-05-07 01:17 36.70766 -79.69721 27812 ft 407 kts 221°
2026-05-07 01:17 36.68421 -79.71688 27563 ft 405 kts 221°
2026-05-07 01:18 36.66096 -79.73638 27314 ft 402 kts 221°
2026-05-07 01:18 36.63776 -79.75574 27059 ft 400 kts 221°
2026-05-07 01:18 36.61465 -79.77503 26838 ft 398 kts 221°
2026-05-07 01:18 36.59169 -79.79414 26618 ft 396 kts 221°
2026-05-07 01:19 36.56884 -79.81316 26415 ft 394 kts 221°
2026-05-07 01:19 36.54608 -79.83211 26163 ft 392 kts 221°
2026-05-07 01:19 36.52365 -79.85073 25962 ft 381 kts 221°
2026-05-07 01:19 36.50196 -79.86863 25759 ft 368 kts 221°
2026-05-07 01:20 36.48081 -79.88574 25502 ft 359 kts 221°
2026-05-07 01:20 36.45994 -79.90266 25254 ft 356 kts 222°
2026-05-07 01:20 36.43939 -79.91961 25012 ft 354 kts 222°
2026-05-07 01:20 36.41888 -79.93663 24773 ft 355 kts 222°
2026-05-07 01:21 36.39811 -79.95384 24549 ft 362 kts 222°
2026-05-07 01:21 36.37705 -79.97130 24330 ft 367 kts 222°
2026-05-07 01:21 36.35574 -79.98883 24117 ft 367 kts 222°
2026-05-07 01:21 36.33445 -80.00639 23899 ft 366 kts 222°
2026-05-07 01:22 36.31335 -80.02396 23659 ft 366 kts 222°
2026-05-07 01:22 36.29221 -80.04144 23415 ft 363 kts 222°
2026-05-07 01:22 36.27132 -80.05864 23123 ft 359 kts 222°
2026-05-07 01:22 36.25054 -80.07572 22722 ft 358 kts 222°
2026-05-07 01:23 36.22977 -80.09292 22323 ft 359 kts 222°
2026-05-07 01:23 36.20894 -80.11011 21868 ft 361 kts 222°
2026-05-07 01:23 36.18829 -80.12706 21376 ft 358 kts 222°
2026-05-07 01:23 36.16782 -80.14390 20878 ft 350 kts 222°
2026-05-07 01:24 36.14748 -80.16061 20379 ft 343 kts 222°
2026-05-07 01:24 36.12780 -80.17679 19904 ft 336 kts 222°
2026-05-07 01:24 36.10847 -80.19257 19427 ft 330 kts 222°
2026-05-07 01:24 36.08944 -80.20819 18917 ft 328 kts 222°
2026-05-07 01:25 36.07047 -80.22386 18459 ft 327 kts 221°
2026-05-07 01:25 36.05180 -80.23918 17985 ft 325 kts 221°
2026-05-07 01:25 36.03294 -80.25458 17461 ft 323 kts 221°
2026-05-07 01:25 36.01430 -80.26977 16951 ft 320 kts 220°
2026-05-07 01:26 35.99578 -80.28490 16445 ft 317 kts 220°
2026-05-07 01:26 35.97750 -80.30005 15960 ft 315 kts 221°
2026-05-07 01:26 35.95943 -80.31522 15481 ft 312 kts 220°
2026-05-07 01:26 35.94154 -80.33023 15007 ft 310 kts 220°
2026-05-07 01:27 35.92367 -80.34507 14578 ft 307 kts 219°
2026-05-07 01:27 35.90599 -80.35959 14151 ft 304 kts 219°
2026-05-07 01:27 35.88844 -80.37396 13742 ft 302 kts 219°
2026-05-07 01:27 35.87102 -80.38817 13270 ft 299 kts 218°
2026-05-07 01:28 35.85375 -80.40221 12835 ft 296 kts 218°
2026-05-07 01:28 35.83673 -80.41607 12543 ft 289 kts 219°
2026-05-07 01:28 35.82053 -80.43006 12284 ft 280 kts 221°
2026-05-07 01:28 35.80516 -80.44437 12022 ft 274 kts 223°
2026-05-07 01:29 35.79040 -80.45874 11766 ft 268 kts 223°
2026-05-07 01:29 35.77585 -80.47287 11519 ft 263 kts 223°
2026-05-07 01:29 35.76157 -80.48663 11285 ft 259 kts 223°
2026-05-07 01:29 35.75218 -80.49561 11128 ft 256 kts 222°
2026-05-07 01:30 35.73708 -80.50729 10884 ft 257 kts 213°
2026-05-07 01:30 35.72091 -80.51655 10646 ft 256 kts 209°
2026-05-07 01:30 35.70453 -80.52482 10409 ft 253 kts 208°
2026-05-07 01:30 35.68281 -80.53500 10096 ft 252 kts 204°
2026-05-07 01:31 35.67144 -80.53884 9950 ft 252 kts 201°
2026-05-07 01:31 35.65445 -80.54373 9699 ft 250 kts 199°
2026-05-07 01:31 35.63733 -80.54851 9442 ft 254 kts 199°
2026-05-07 01:31 35.62018 -80.55345 9201 ft 252 kts 200°
2026-05-07 01:32 35.60347 -80.55860 8953 ft 248 kts 203°
2026-05-07 01:32 35.58960 -80.56966 8594 ft 237 kts 237°
2026-05-07 01:32 35.58249 -80.58780 8221 ft 237 kts 249°
2026-05-07 01:32 35.57664 -80.60680 7839 ft 239 kts 250°
2026-05-07 01:33 35.57117 -80.62613 7491 ft 239 kts 251°
2026-05-07 01:33 35.56599 -80.64550 7119 ft 239 kts 252°
2026-05-07 01:33 35.56088 -80.66497 6743 ft 238 kts 252°
2026-05-07 01:33 35.55599 -80.68431 6354 ft 237 kts 252°
2026-05-07 01:34 35.55120 -80.70357 5944 ft 235 kts 252°
2026-05-07 01:34 35.54659 -80.72271 5563 ft 233 kts 252°
2026-05-07 01:34 35.54204 -80.74171 5172 ft 230 kts 252°
2026-05-07 01:34 35.53765 -80.76051 4764 ft 228 kts 252°
2026-05-07 01:35 35.53338 -80.77919 4375 ft 225 kts 252°
2026-05-07 01:35 35.52932 -80.79740 4152 ft 216 kts 252°
2026-05-07 01:35 35.52550 -80.81470 4071 ft 204 kts 252°
2026-05-07 01:35 35.52196 -80.83110 4028 ft 196 kts 252°
2026-05-07 01:36 35.51848 -80.84698 4008 ft 189 kts 252°
2026-05-07 01:36 35.51508 -80.86229 3966 ft 182 kts 252°
2026-05-07 01:36 35.51174 -80.87703 3952 ft 179 kts 252°
2026-05-07 01:36 35.50836 -80.89185 3952 ft 182 kts 252°
2026-05-07 01:37 35.50498 -80.90698 3960 ft 185 kts 252°
2026-05-07 01:37 35.50051 -80.92184 3963 ft 188 kts 232°
2026-05-07 01:37 35.48933 -80.93008 4024 ft 195 kts 204°
2026-05-07 01:37 35.47643 -80.93529 4048 ft 200 kts 204°
2026-05-07 01:38 35.46298 -80.94047 4076 ft 204 kts 202°
2026-05-07 01:38 35.44930 -80.94551 4104 ft 207 kts 202°
2026-05-07 01:38 35.43493 -80.94852 4123 ft 213 kts 190°
2026-05-07 01:38 35.42022 -80.94927 4128 ft 210 kts 189°
2026-05-07 01:39 35.40573 -80.94957 4132 ft 207 kts 188°
2026-05-07 01:39 35.39145 -80.94960 3954 ft 211 kts 187°
2026-05-07 01:39 35.37700 -80.94894 3713 ft 200 kts 184°
2026-05-07 01:39 35.36329 -80.94785 3390 ft 193 kts 183°
2026-05-07 01:40 35.35023 -80.94673 3188 ft 182 kts 184°
2026-05-07 01:40 35.33859 -80.94564 2950 ft 155 kts 185°
2026-05-07 01:40 35.32794 -80.94479 2753 ft 154 kts 187°
2026-05-07 01:40 35.31724 -80.94402 2578 ft 153 kts 188°
2026-05-07 01:41 35.30658 -80.94327 2427 ft 152 kts 186°
2026-05-07 01:41 35.29621 -80.94252 2154 ft 148 kts 183°
2026-05-07 01:41 35.28613 -80.94162 1943 ft 143 kts 180°
2026-05-07 01:41 35.27669 -80.94008 1833 ft 135 kts 182°
2026-05-07 01:42 35.26785 -80.93890 1708 ft 122 kts 184°
2026-05-07 01:42 35.25891 -80.93868 1474 ft 134 kts 183°
2026-05-07 01:42 35.24958 -80.93810 1253 ft 136 kts 180°
2026-05-07 01:42 35.23974 -80.93734 1060 ft 147 kts 179°
2026-05-07 01:43 35.22959 -80.93648 885 ft 146 kts 178°
2026-05-07 01:43 35.21961 -80.93570 728 ft 129 kts 177°
2026-05-07 01:43 35.21306 -80.93517 719 ft 45 kts 176°
2026-05-07 01:43 35.21036 -80.93508 717 ft 32 kts 188°
2026-05-07 01:44 35.20952 -80.93530 714 ft 9 kts 195°
2026-05-07 01:44 35.20904 -80.93551 716 ft 0 kts 201°
2026-05-07 01:44 35.20900 -80.93553 716 ft 0 kts 204°
2026-05-07 01:44 35.20897 -80.93556 716 ft 4 kts 222°
2026-05-07 01:45 35.20893 -80.93577 717 ft 2 kts 293°
2026-05-07 01:45 35.20920 -80.93610 718 ft 6 kts 333°
2026-05-07 01:45 35.20962 -80.93620 718 ft 6 kts 355°
2026-05-07 01:45 35.21007 -80.93624 719 ft 7 kts 356°
2026-05-07 01:46 35.21054 -80.93628 717 ft 7 kts 356°
2026-05-07 01:46 35.21105 -80.93633 719 ft 8 kts 356°
2026-05-07 01:46 35.21158 -80.93637 719 ft 8 kts 356°
2026-05-07 01:46 35.21214 -80.93642 719 ft 8 kts 356°
2026-05-07 01:47 35.21271 -80.93647 719 ft 8 kts 356°
2026-05-07 01:47 35.21327 -80.93652 721 ft 8 kts 356°
2026-05-07 01:47 35.21385 -80.93657 722 ft 9 kts 356°
2026-05-07 01:47 35.21446 -80.93662 722 ft 9 kts 356°
2026-05-07 01:48 35.21510 -80.93668 722 ft 10 kts 356°
2026-05-07 01:48 35.21578 -80.93674 723 ft 10 kts 356°
2026-05-07 01:48 35.21653 -80.93681 723 ft 11 kts 356°
2026-05-07 01:48 35.21732 -80.93687 727 ft 12 kts 356°
2026-05-07 01:49 35.21816 -80.93695 726 ft 12 kts 356°
2026-05-07 01:49 35.21906 -80.93703 725 ft 13 kts 356°
2026-05-07 01:49 35.22002 -80.93711 726 ft 14 kts 356°
2026-05-07 01:49 35.22101 -80.93719 726 ft 14 kts 356°
2026-05-07 01:50 35.22202 -80.93727 729 ft 15 kts 356°
2026-05-07 01:50 35.22307 -80.93736 728 ft 15 kts 356°
2026-05-07 01:50 35.22374 -80.93744 729 ft 7 kts 343°
2026-05-07 01:50 35.22391 -80.93759 729 ft 0 kts 291°
2026-05-07 01:51 35.22392 -80.93780 729 ft 5 kts 272°
2026-05-07 01:51 35.22396 -80.93843 728 ft 8 kts 280°
2026-05-07 01:51 35.22419 -80.93910 728 ft 9 kts 284°
2026-05-07 01:51 35.22421 -80.93936 728 ft 1 kts 271°
2026-05-07 01:52 35.22422 -80.93946 728 ft 1 kts 297°
2026-05-07 01:52 35.22431 -80.93964 729 ft 4 kts 295°
2026-05-07 01:52 35.22432 -80.93981 719 ft 2 kts 253°
2026-05-07 01:52 35.22427 -80.93997 742 ft 0 kts 245°